[[{"header":{"parameterUnit":"m.s-1","parameterCategory":2,"la1":30.2992,"la2":30.254,"lo1":-89.0895,"lo2":-89.0443,"dy":0.0025,"dx":0.0025,"nx":19,"ny":19,"refTime":"2026-03-13T09:00:00:Z","depth":"0","parameterNumber":2,"parameterNumberName":"U-component_of_CURRENTS"},"data":[0,0,0,0.3023,0.3025,0.3088,0.3088,0.3158,0.3158,0,0,0,0,0,0,0,0,0,0,0,0.2993,0.2994,0.3023,0.3025,0.3088,0.3088,0.3157,0.3158,0,0,0,0,0,0,0,0,0,0,0,0.2993,0.2993,0.2994,0.3025,0.3088,0.3088,0.3157,0.311,0,0,0,0,0,0,0,0,0,0,0.3048,0.3023,0.2993,0.2994,0.3026,0.3088,0.3088,0.3107,0.3113,0.3129,0,0.3144,0,0.3162,0.3164,0.3164,0,0,0,0.3013,0.3019,0.3044,0.2994,0.3026,0.3088,0.3056,0.311,0.3116,0.3136,0.3145,0.3148,0.3163,0.3164,0.3165,0.3262,0.3262,0,0,0.301,0.2997,0.3039,0.3047,0.3049,0.3054,0.3058,0.3114,0.3118,0.3145,0.315,0.3164,0.3165,0.3165,0.3261,0.3262,0,0,0,0.3008,0.2994,0.3017,0.3044,0.3062,0.3057,0.3061,0.3115,0.3126,0.3151,0.3165,0.3165,0.3166,0.3261,0.3261,0.33,0,0,0,0.3005,0.2994,0.3016,0.3008,0.3061,0.3091,0.3061,0.3121,0.3129,0.3165,0.3165,0.3167,0.326,0.3261,0.3297,0.3338,0,0,0,0.2989,0.2992,0.3003,0.3007,0.3042,0.3091,0.3103,0.3123,0.3138,0.3164,0.3167,0.326,0.3261,0.3296,0.3334,0.3398,0,0,0,0.2968,0.298,0.3003,0.3027,0.3041,0.3099,0.3103,0.3141,0.3164,0.3166,0.326,0.3261,0.3295,0.3332,0.3395,0.3376,0.3389,0,0,0.2969,0.298,0.2996,0.3018,0.307,0.3089,0.3151,0.3178,0.3187,0.3238,0.324,0.3298,0.3334,0.3397,0.3438,0.3449,0,0,0,0.2987,0.2997,0.3018,0.3056,0.3104,0.3161,0.3189,0.3219,0.3269,0.3209,0.3309,0.3332,0.337,0.3352,0.3361,0.3323,0.3266,0.3266,0.3266,0.2951,0.2992,0.3019,0.3075,0.3126,0.3213,0.3267,0.3315,0.3305,0.3337,0.337,0.3457,0.3437,0.3444,0.3405,0.3365,0.3366,0.3366,0.3366,0.2936,0.2943,0.3015,0.3051,0.314,0.3201,0.3344,0.3373,0.3473,0.3432,0.3467,0.3402,0.3456,0.3411,0.3368,0.3368,0.3368,0.3367,0.3367,0.2884,0.2893,0.2923,0.2994,0.3084,0.3204,0.3331,0.3444,0.3519,0.3567,0.3555,0.3553,0.351,0.3579,0.358,0.358,0.3581,0.3581,0.3581,0.2805,0.2842,0.2853,0.2943,0.2983,0.3122,0.3332,0.3432,0.3579,0.3623,0.3622,0.3539,0.3523,0.3511,0.3589,0.3587,0.3586,0.3586,0.3585,0.2734,0.2752,0.2769,0.2797,0.2902,0.2961,0.3203,0.3429,0.3564,0.364,0.3638,0.3655,0.3651,0.3643,0.3633,0.3739,0.3739,0.3739,0.3739,0.267,0.2688,0.2676,0.2695,0.2763,0.2883,0.2965,0.3205,0.3501,0.3599,0.3681,0.3602,0.3598,0.3586,0.3579,0.3567,0.3653,0.3653,0.3653,0.2622,0.2635,0.2591,0.2618,0.2673,0.275,0.2766,0.2915,0.3365,0.3646,0.3639,0.3642,0.352,0.3515,0.3487,0.348,0.3455,0,0]},{"header":{"parameterUnit":"m.s-1","parameterCategory":2,"la1":30.2992,"la2":30.254,"lo1":-89.0895,"lo2":-89.0443,"dy":0.0025,"dx":0.0025,"nx":19,"ny":19,"refTime":"2026-03-13T09:00:00:Z","depth":"0","parameterNumber":3,"parameterNumberName":"V-component_of_CURRENTS"},"data":[0,0,0,0.0357,0.0356,0.0307,0.0307,0.0207,0.0206,0,0,0,0,0,0,0,0,0,0,0,0.0374,0.0374,0.0357,0.0356,0.0307,0.0307,0.0207,0.0206,0,0,0,0,0,0,0,0,0,0,0,0.0374,0.0374,0.0374,0.0356,0.0307,0.0307,0.0208,0.0251,0,0,0,0,0,0,0,0,0,0,0.0302,0.0328,0.0374,0.0374,0.0356,0.0307,0.0307,0.0253,0.0248,0.0223,0,0.0224,0,0.0217,0.02,0.02,0,0,0,0.0344,0.0332,0.032,0.0374,0.0355,0.0307,0.0326,0.025,0.0245,0.0216,0.0223,0.0219,0.0216,0.0199,0.0199,0.0181,0.0181,0,0,0.0346,0.0359,0.0325,0.0317,0.0353,0.0327,0.0324,0.0247,0.0244,0.0222,0.0217,0.0214,0.0199,0.0198,0.018,0.0181,0,0,0,0.0362,0.0361,0.0351,0.0321,0.0318,0.0326,0.0323,0.0247,0.0245,0.0216,0.0213,0.0198,0.0197,0.018,0.018,0.0306,0,0,0,0.0363,0.0371,0.0353,0.0359,0.032,0.0287,0.0324,0.025,0.0241,0.0213,0.0198,0.0196,0.0179,0.018,0.0301,0.0376,0,0,0,0.0374,0.0372,0.037,0.036,0.0344,0.0289,0.0281,0.0248,0.024,0.02,0.0196,0.0179,0.018,0.0297,0.0368,0.042,0,0,0,0.0382,0.041,0.0371,0.0403,0.0345,0.0358,0.0282,0.0273,0.0248,0.0198,0.0179,0.018,0.0296,0.0363,0.0415,0.0521,0.0552,0,0,0.043,0.0416,0.0439,0.0403,0.0448,0.0363,0.04,0.0327,0.0255,0.0198,0.0197,0.0303,0.0368,0.0419,0.0591,0.062,0,0,0,0.0462,0.0483,0.0489,0.0502,0.0485,0.0484,0.0407,0.0371,0.0324,0.0246,0.0292,0.0329,0.0357,0.041,0.0434,0.0298,0.0186,0.0186,0.0186,0.0539,0.0543,0.0596,0.0599,0.0597,0.0563,0.0554,0.0487,0.04,0.0398,0.0423,0.054,0.0598,0.0616,0.0475,0.0402,0.0402,0.0403,0.0403,0.0637,0.0678,0.068,0.0729,0.0719,0.0735,0.0688,0.064,0.0615,0.0524,0.0544,0.0531,0.065,0.0489,0.0411,0.0409,0.0408,0.0408,0.0407,0.0693,0.072,0.0743,0.0816,0.0876,0.0862,0.0941,0.0869,0.0749,0.077,0.0789,0.0788,0.0653,0.077,0.0771,0.0772,0.0772,0.0773,0.0773,0.0742,0.0774,0.0849,0.0922,0.0989,0.1085,0.1094,0.1095,0.1042,0.095,0.095,0.0688,0.0651,0.0644,0.0782,0.078,0.0779,0.0778,0.0778,0.0825,0.0833,0.0957,0.1032,0.1211,0.1388,0.1375,0.1412,0.135,0.135,0.0978,0.1027,0.0996,0.0976,0.0975,0.1191,0.1191,0.1191,0.1191,0.0877,0.0892,0.1066,0.1214,0.1399,0.1533,0.1737,0.1727,0.1432,0.1241,0.1068,0.0986,0.0975,0.0933,0.0915,0.0908,0.1102,0.1101,0.1101,0.0943,0.099,0.1127,0.1271,0.1487,0.1706,0.1928,0.2002,0.1503,0.1075,0.0859,0.0863,0.0711,0.0705,0.0608,0.0593,0.0569,0,0]}],[{"header":{"parameterUnit":"m.s-1","parameterCategory":2,"la1":30.2992,"la2":30.254,"lo1":-89.0895,"lo2":-89.0443,"dy":0.0025,"dx":0.0025,"nx":19,"ny":19,"refTime":"2026-03-13T09:00:00:Z","depth":"2","parameterNumber":2,"parameterNumberName":"U-component_of_CURRENTS"},"data":[0,0,0,0.2655,0.2657,0.2743,0.2744,0.2824,0.2825,0,0,0,0,0,0,0,0,0,0,0,0.262,0.2621,0.2654,0.2657,0.2743,0.2744,0.2824,0.2825,0,0,0,0,0,0,0,0,0,0,0,0.2619,0.262,0.2621,0.2657,0.2743,0.2744,0.2824,0.2764,0,0,0,0,0,0,0,0,0,0,0.2683,0.2656,0.262,0.2621,0.2658,0.2743,0.2744,0.2761,0.2768,0.2779,0,0.2799,0,0.282,0.283,0.2831,0,0,0,0.2648,0.2651,0.2679,0.2621,0.2659,0.2743,0.2702,0.2765,0.2772,0.2788,0.28,0.2804,0.2822,0.2831,0.2831,0.293,0.2931,0,0,0.2643,0.263,0.2675,0.2684,0.269,0.2699,0.2705,0.277,0.2777,0.2801,0.2806,0.2823,0.2832,0.2832,0.293,0.293,0,0,0,0.2636,0.2626,0.2653,0.268,0.2702,0.2702,0.2708,0.2774,0.2785,0.2807,0.2824,0.2832,0.2833,0.2929,0.293,0.297,0,0,0,0.2632,0.2623,0.2651,0.2643,0.2702,0.2744,0.2711,0.278,0.2788,0.2824,0.2832,0.2834,0.2929,0.293,0.2968,0.3006,0,0,0,0.2614,0.2621,0.2634,0.2642,0.2685,0.2743,0.2757,0.2782,0.2799,0.2831,0.2834,0.2928,0.2929,0.2966,0.3002,0.3063,0,0,0,0.2592,0.2609,0.2634,0.2663,0.2685,0.2748,0.2757,0.2804,0.2832,0.2832,0.2929,0.293,0.2966,0.3,0.306,0.3004,0.3013,0,0,0.2596,0.2609,0.2627,0.2652,0.2708,0.2735,0.2801,0.284,0.2853,0.2902,0.2905,0.2969,0.3002,0.3062,0.3067,0.3074,0,0,0,0.2617,0.2629,0.2651,0.2694,0.2745,0.2808,0.2846,0.2879,0.2938,0.2878,0.298,0.3001,0.3037,0.2997,0.3003,0.2935,0.2935,0.2935,0.2935,0.2589,0.2628,0.2659,0.2716,0.2769,0.2861,0.292,0.2973,0.2969,0.3007,0.3041,0.3127,0.3083,0.3087,0.3038,0.3038,0.3038,0.3038,0.3039,0.2579,0.2588,0.266,0.2702,0.2791,0.2858,0.2997,0.303,0.3135,0.3101,0.3134,0.305,0.3096,0.3042,0.3041,0.3041,0.3041,0.304,0.304,0.2533,0.2543,0.258,0.2655,0.275,0.2868,0.2992,0.3107,0.3182,0.3231,0.3196,0.3194,0.3165,0.3247,0.3248,0.3248,0.3249,0.3249,0.3249,0.2459,0.25,0.2519,0.2613,0.2659,0.2797,0.3004,0.3097,0.3225,0.326,0.3259,0.3198,0.3191,0.3178,0.3256,0.3255,0.3254,0.3253,0.3253,0.2393,0.2415,0.244,0.2475,0.2584,0.2637,0.287,0.3064,0.3196,0.3247,0.3276,0.3273,0.3264,0.3256,0.3245,0.3337,0.3337,0.3337,0.3337,0.2332,0.2352,0.2353,0.2378,0.2444,0.2558,0.2612,0.2782,0.3029,0.3099,0.3109,0.3012,0.3016,0.2986,0.2985,0.2966,0.2985,0.2984,0.2983,0.2285,0.2302,0.2267,0.2302,0.2354,0.2423,0.2401,0.2419,0.2662,0.2962,0.2977,0.3327,0.3209,0.3204,0.3175,0.3168,0.3143,0,0]},{"header":{"parameterUnit":"m.s-1","parameterCategory":2,"la1":30.2992,"la2":30.254,"lo1":-89.0895,"lo2":-89.0443,"dy":0.0025,"dx":0.0025,"nx":19,"ny":19,"refTime":"2026-03-13T09:00:00:Z","depth":"2","parameterNumber":3,"parameterNumberName":"V-component_of_CURRENTS"},"data":[0,0,0,0.0207,0.0207,0.0166,0.0166,0.0073,0.0073,0,0,0,0,0,0,0,0,0,0,0,0.0221,0.0221,0.0207,0.0207,0.0166,0.0166,0.0074,0.0073,0,0,0,0,0,0,0,0,0,0,0,0.0221,0.0221,0.0221,0.0207,0.0166,0.0166,0.0074,0.0112,0,0,0,0,0,0,0,0,0,0,0.0155,0.0179,0.0221,0.0221,0.0206,0.0167,0.0166,0.0114,0.0109,0.0084,0,0.0086,0,0.0081,0.0067,0.0066,0,0,0,0.0195,0.0183,0.0173,0.0221,0.0206,0.0167,0.0181,0.0112,0.0106,0.0077,0.0085,0.0081,0.0079,0.0066,0.0066,0.0047,0.0048,0,0,0.0198,0.0209,0.0177,0.017,0.0206,0.0183,0.018,0.0109,0.0106,0.0084,0.0079,0.0078,0.0065,0.0065,0.0047,0.0047,0,0,0,0.0212,0.0211,0.0203,0.0174,0.0172,0.0182,0.0179,0.0109,0.0107,0.0078,0.0077,0.0065,0.0064,0.0046,0.0047,0.0163,0,0,0,0.0212,0.0219,0.0204,0.0209,0.0174,0.0146,0.0181,0.0112,0.0104,0.0077,0.0065,0.0063,0.0046,0.0047,0.0159,0.0227,0,0,0,0.0221,0.022,0.0219,0.021,0.0198,0.0147,0.0141,0.011,0.0103,0.0066,0.0063,0.0045,0.0047,0.0155,0.0219,0.0259,0,0,0,0.0228,0.0255,0.022,0.0251,0.0198,0.0211,0.0141,0.0134,0.0112,0.0064,0.0046,0.0047,0.0154,0.0215,0.0254,0.0324,0.035,0,0,0.0271,0.026,0.0281,0.0249,0.0292,0.0215,0.0249,0.0184,0.0117,0.0063,0.0062,0.016,0.0219,0.0258,0.039,0.0414,0,0,0,0.0302,0.0322,0.0327,0.0341,0.0326,0.0327,0.0257,0.0223,0.0181,0.011,0.0151,0.0184,0.0205,0.0238,0.0257,0.0052,0.0052,0.0052,0.0052,0.0372,0.0376,0.0427,0.0431,0.0429,0.0399,0.039,0.0328,0.0249,0.0248,0.0271,0.0373,0.041,0.0425,0.0252,0.0252,0.0253,0.0253,0.0254,0.0462,0.0501,0.0504,0.0551,0.0543,0.0557,0.0512,0.0468,0.0443,0.0364,0.0377,0.035,0.0453,0.0263,0.0261,0.026,0.0259,0.0258,0.0257,0.0515,0.054,0.0563,0.0633,0.0688,0.0675,0.0744,0.0678,0.0565,0.0583,0.0578,0.0576,0.0447,0.058,0.058,0.0581,0.0581,0.0581,0.0582,0.0559,0.0591,0.0662,0.073,0.0793,0.0879,0.0886,0.088,0.0814,0.0723,0.0722,0.0483,0.0472,0.0464,0.0589,0.0588,0.0587,0.0586,0.0586,0.0633,0.0643,0.0759,0.0829,0.0994,0.1145,0.1132,0.1138,0.1076,0.1056,0.0783,0.0776,0.0742,0.0726,0.0723,0.0908,0.0908,0.0908,0.0908,0.0679,0.0694,0.0856,0.0993,0.1159,0.1272,0.1427,0.1373,0.1182,0.1028,0.1022,0.0968,0.0953,0.0925,0.0904,0.0902,0.1134,0.1134,0.1134,0.0735,0.0781,0.0906,0.1042,0.1235,0.142,0.1577,0.1538,0.1243,0.114,0.1025,0.093,0.0832,0.0816,0.075,0.0726,0.0712,0,0]}],[{"header":{"parameterUnit":"m.s-1","parameterCategory":2,"la1":30.2992,"la2":30.254,"lo1":-89.0895,"lo2":-89.0443,"dy":0.0025,"dx":0.0025,"nx":19,"ny":19,"refTime":"2026-03-13T09:00:00:Z","depth":"4","parameterNumber":2,"parameterNumberName":"U-component_of_CURRENTS"},"data":[0,0,0,0.182,0.1824,0.2008,0.2008,0.2154,0.2155,0,0,0,0,0,0,0,0,0,0,0,0.1763,0.1764,0.182,0.1825,0.2008,0.2008,0.2154,0.2155,0,0,0,0,0,0,0,0,0,0,0,0.1762,0.1764,0.1766,0.1825,0.2007,0.2009,0.2153,0.2037,0,0,0,0,0,0,0,0,0,0,0.187,0.1835,0.1763,0.1766,0.1826,0.2007,0.2009,0.2032,0.2044,0.2046,0,0.2089,0,0.2123,0.2163,0.2163,0,0,0,0.1823,0.1826,0.187,0.1766,0.1828,0.2007,0.1925,0.2039,0.2053,0.2061,0.2091,0.2097,0.2125,0.2164,0.2164,0.2295,0.2295,0,0,0.1813,0.1797,0.1861,0.1879,0.1893,0.1919,0.193,0.2049,0.2071,0.2092,0.2101,0.2127,0.2164,0.2165,0.2294,0.2295,0,0,0,0.1785,0.179,0.1834,0.1872,0.1912,0.1924,0.1937,0.2066,0.208,0.2103,0.2129,0.2165,0.2166,0.2294,0.2294,0.234,0,0,0,0.1779,0.1774,0.1829,0.1822,0.191,0.2005,0.1952,0.2072,0.2086,0.2128,0.2165,0.2168,0.2293,0.2294,0.2337,0.2366,0,0,0,0.1751,0.1771,0.1797,0.1821,0.19,0.2004,0.2026,0.2076,0.2102,0.2163,0.2168,0.2293,0.2294,0.2335,0.2362,0.2418,0,0,0,0.1721,0.1756,0.1797,0.185,0.1898,0.1996,0.2025,0.2114,0.2169,0.2166,0.2293,0.2294,0.2334,0.236,0.2415,0.2118,0,0,0,0.1735,0.1758,0.1786,0.1826,0.1908,0.197,0.2068,0.2157,0.2186,0.2246,0.225,0.2338,0.2362,0.2417,0.2198,0,0,0,0,0.177,0.1794,0.1826,0.1894,0.1969,0.2063,0.2147,0.2195,0.2293,0.2228,0.2352,0.2366,0.2399,0.2218,0.2301,0.2301,0.23,0.23,0.23,0.1752,0.18,0.1854,0.1929,0.2006,0.2137,0.2218,0.2301,0.2319,0.2376,0.2413,0.2501,0.231,0.2419,0.2419,0.242,0.242,0.242,0.242,0.1751,0.1771,0.1867,0.1938,0.2052,0.2152,0.2307,0.2362,0.249,0.2474,0.2503,0.229,0.2425,0.2424,0.2423,0.2423,0.2422,0.2422,0.2422,0.1705,0.172,0.1792,0.1908,0.204,0.2183,0.2311,0.2447,0.2538,0.2591,0.2414,0.2546,0.2532,0.2618,0.2619,0.2619,0.2619,0.262,0.262,0.1614,0.1684,0.1741,0.1878,0.1958,0.2113,0.2338,0.2417,0.2548,0.2449,0.2623,0.2568,0.2561,0.2545,0.2626,0.2625,0.2624,0.2624,0.2623,0.1532,0.1584,0.1648,0.1723,0.1884,0.1968,0.2213,0.2304,0.237,0.2354,0.2367,0.2378,0.2341,0.234,0.2314,0.233,0.2326,0.2323,0,0.1463,0.1496,0.156,0.1627,0.17,0.1869,0.1891,0.2023,0.215,0.2077,0.2375,0.2386,0.2392,0.2345,0.234,0.2304,0,0,0,0.1408,0.1442,0.1448,0.1533,0.1592,0.1703,0.1885,0.1864,0.2129,0.211,0.2235,0.2258,0.247,0.2644,0.2613,0.2605,0.2577,0,0]},{"header":{"parameterUnit":"m.s-1","parameterCategory":2,"la1":30.2992,"la2":30.254,"lo1":-89.0895,"lo2":-89.0443,"dy":0.0025,"dx":0.0025,"nx":19,"ny":19,"refTime":"2026-03-13T09:00:00:Z","depth":"4","parameterNumber":3,"parameterNumberName":"V-component_of_CURRENTS"},"data":[0,0,0,0.0133,0.0132,0.0106,0.0106,0.0035,0.0035,0,0,0,0,0,0,0,0,0,0,0,0.0141,0.0141,0.0133,0.0132,0.0106,0.0106,0.0035,0.0034,0,0,0,0,0,0,0,0,0,0,0,0.0141,0.0141,0.0141,0.0132,0.0106,0.0106,0.0035,0.0062,0,0,0,0,0,0,0,0,0,0,0.0091,0.011,0.0141,0.0141,0.0132,0.0106,0.0106,0.0064,0.006,0.0039,0,0.0042,0,0.004,0.003,0.0029,0,0,0,0.0123,0.0113,0.0106,0.0141,0.0132,0.0107,0.0115,0.0062,0.0058,0.0034,0.0041,0.0039,0.0039,0.0029,0.0029,0.0016,0.0016,0,0,0.0124,0.0133,0.0108,0.0104,0.0134,0.0116,0.0115,0.006,0.0059,0.0041,0.0037,0.0037,0.0029,0.0028,0.0015,0.0016,0,0,0,0.0135,0.0134,0.0129,0.0106,0.0106,0.0116,0.0114,0.0061,0.006,0.0037,0.0037,0.0028,0.0028,0.0015,0.0015,0.0108,0,0,0,0.0135,0.0141,0.013,0.0134,0.0108,0.0089,0.0116,0.0064,0.0058,0.0037,0.0028,0.0027,0.0014,0.0015,0.0104,0.0158,0,0,0,0.0141,0.0141,0.0141,0.0135,0.0128,0.009,0.0085,0.0062,0.0058,0.0029,0.0027,0.0014,0.0015,0.0101,0.0152,0.0175,0,0,0,0.0146,0.0165,0.0141,0.0166,0.0128,0.014,0.0086,0.0083,0.0066,0.0028,0.0014,0.0015,0.01,0.0148,0.0171,0.0196,0,0,0,0.0177,0.0169,0.0186,0.0164,0.02,0.0142,0.0172,0.0122,0.007,0.0027,0.0026,0.0105,0.0151,0.0174,0.0249,0,0,0,0,0.0201,0.0216,0.0222,0.0235,0.0227,0.0231,0.0179,0.0153,0.0121,0.0065,0.0098,0.0124,0.0135,0.0139,0.002,0.002,0.002,0.002,0.0019,0.0249,0.0256,0.0297,0.0306,0.0307,0.0289,0.0283,0.0235,0.0175,0.0175,0.0194,0.0269,0.0277,0.0178,0.0179,0.0179,0.0179,0.018,0.018,0.0314,0.0344,0.0355,0.0396,0.0398,0.0413,0.0379,0.0346,0.0325,0.0266,0.0271,0.023,0.0189,0.0187,0.0186,0.0185,0.0184,0.0184,0.0183,0.0348,0.0368,0.0395,0.0458,0.051,0.0506,0.0558,0.0511,0.042,0.0432,0.0405,0.0326,0.0324,0.0427,0.0427,0.0427,0.0428,0.0428,0.0428,0.0371,0.0403,0.0463,0.053,0.0587,0.0658,0.0669,0.0654,0.0572,0.0522,0.046,0.0351,0.0343,0.0337,0.0434,0.0433,0.0432,0.0431,0.0431,0.0411,0.0428,0.0523,0.0587,0.0728,0.0783,0.0803,0.0757,0.0735,0.0675,0.0549,0.0542,0.0507,0.0495,0.0492,0.0639,0.064,0.064,0,0.0434,0.045,0.058,0.0694,0.0815,0.0859,0.0878,0.085,0.0728,0.0714,0.07,0.056,0.0553,0.0513,0.0503,0.0501,0,0,0,0.0463,0.0502,0.0596,0.0713,0.0851,0.0878,0.0886,0.0855,0.0757,0.0739,0.0658,0.0653,0.0561,0.045,0.0378,0.0368,0.0354,0,0]}]]